Weather History for Winner, SD

Change the Weather History Date:

Thursday, December 6, 2012

  Actual Average Record
Temperature  
Mean Temperature 44 °F 26 °F  
Max Temperature 53 °F 36 °F 53 °F (2012)
Min Temperature 35 °F 17 °F -16 °F (2013)
Degree Days  
Heating Degree Days 21 39  
Month to date heating degree days 97 227  
Since 1 July heating degree days 1418 1698  
Cooling Degree Days 0 0  
Month to date cooling degree days 0 0  
Year to date cooling degree days 1470 916  
Moisture  
Dew Point 21 °F    
Average Humidity 44    
Maximum Humidity 52    
Minimum Humidity 36    
Precipitation  
Precipitation T in 0.02 in 0.00 in (2014)
Month to date precipitation T 0.12  
Year to date precipitation 10.16 21.37  
Sea Level Pressure  
Sea Level Pressure 30.00 in    
Wind  
Wind Speed 11 mph (NW)    
Max Wind Speed 24 mph    
Max Gust Speed 31 mph    
Visibility 10 miles    
Events      
T = Trace of Precipitation, MM = Missing Value Source: NWS Daily Summary

Daily Weather History Graph

Daily Weather History Graph

Search for Another Location

Airport:

Trip Planner

Search our weather history database for the weather conditions in past years. The results will help you decide how hot, cold, wet, or windy it might be!

Date:

Astronomy

Dec. 06, 2012 Rise Set
Actual Time 7:57 AM CST 5:03 PM CST
Civil Twilight 7:25 AM CST 5:35 PM CST
Nautical Twilight 6:49 AM CST 6:11 PM CST
Astronomical Twilight 6:15 AM CST 6:46 PM CST
Moon 12:03 AM CST (12/6) 12:41 PM CST (12/6)
Length of Visible Light 10h 10m
Length of Day
9h 05m
Waning Gibbous, 49% of the Moon is Illuminated
Dec 6
Waning Gibbous
Dec 13
New
Dec 19
First Quarter
Dec 28
Full
Jan 4
Last Quarter

Hourly Weather History & Observations

Time (CST) Temp. Windchill Dew Point Humidity Pressure Visibility Wind Dir Wind Speed Gust Speed Precip Events Conditions
12:53 AM 53.1 °F - 33.1 °F 47% 29.78 in 10.0 mi WNW 11.5 mph - N/A   Overcast
1:53 AM 50.0 °F - 33.1 °F 52% 29.84 in 10.0 mi NNW 20.7 mph - N/A   Overcast
2:53 AM 48.0 °F - 26.1 °F 42% 29.90 in 10.0 mi NNW 16.1 mph 25.3 mph 0.00 in   Mostly Cloudy
3:53 AM 46.9 °F - 25.0 °F 42% 29.93 in 10.0 mi NNW 15.0 mph - N/A   Overcast
4:53 AM 46.0 °F 39.9 °F 24.1 °F 42% 29.95 in 10.0 mi NW 13.8 mph - N/A   Overcast
5:53 AM 43.0 °F 36.8 °F 21.0 °F 42% 29.96 in 10.0 mi NW 11.5 mph - N/A   Overcast
6:53 AM 43.0 °F 34.5 °F 21.0 °F 42% 29.98 in 10.0 mi NNW 19.6 mph 25.3 mph N/A   Overcast
7:53 AM 42.1 °F 33.9 °F 19.0 °F 40% 30.02 in 10.0 mi NW 17.3 mph - N/A   Overcast
8:53 AM 42.1 °F 33.3 °F 18.0 °F 38% 30.03 in 10.0 mi NNW 19.6 mph 26.5 mph N/A   Mostly Cloudy
9:53 AM 42.1 °F 33.6 °F 17.1 °F 37% 30.04 in 10.0 mi NNW 18.4 mph - N/A   Overcast
10:53 AM 43.0 °F 35.1 °F 17.1 °F 35% 30.07 in 10.0 mi NW 17.3 mph - N/A   Overcast
11:53 AM 41.0 °F 33.1 °F 19.0 °F 41% 30.06 in 10.0 mi NNW 15.0 mph - N/A   Overcast
12:53 PM 41.0 °F 33.9 °F 19.0 °F 41% 30.05 in 10.0 mi WNW 12.7 mph - N/A   Overcast
1:53 PM 43.0 °F 36.8 °F 18.0 °F 37% 30.04 in 10.0 mi WNW 11.5 mph - N/A   Overcast
2:53 PM 42.1 °F 35.7 °F 18.0 °F 38% 30.03 in 10.0 mi NW 11.5 mph - N/A   Overcast
3:53 PM 43.0 °F 37.2 °F 18.0 °F 37% 30.02 in 10.0 mi NW 10.4 mph - N/A   Overcast
4:53 PM 41.0 °F 35.2 °F 19.0 °F 41% 30.02 in 10.0 mi NW 9.2 mph - N/A   Overcast
5:53 PM 39.0 °F 34.8 °F 19.0 °F 45% 30.03 in 10.0 mi NNW 5.8 mph - N/A   Overcast
6:53 PM 37.9 °F 35.5 °F 19.0 °F 47% 30.03 in 10.0 mi North 3.5 mph - N/A   Overcast
7:53 PM 39.0 °F - 19.0 °F 45% 30.04 in 10.0 mi Calm Calm - N/A   Overcast
8:53 PM 37.9 °F - 19.0 °F 47% 30.04 in 10.0 mi Calm Calm - N/A   Overcast
9:53 PM 37.0 °F - 19.0 °F 48% 30.03 in 10.0 mi Calm Calm - N/A   Overcast
10:53 PM 35.1 °F 32.2 °F 19.9 °F 54% 30.02 in 10.0 mi South 3.5 mph - N/A   Overcast
11:53 PM 37.0 °F 33.3 °F 19.9 °F 50% 30.01 in 10.0 mi SSE 4.6 mph - N/A   Overcast